Bridgeport, CT NWLON current weather conditions

sailwx.info

Wind from 216 at 10 knots gusting 13

Air temperature 5.0° C
Water temperature 7.2° C

Last reported at 2019-Dec-06 16:36 UTC.
Time now 2019-Dec-06 17:46 UTC

Location: N 41°10' W 073°11'.
View on Google Maps.

See reports from other nearby stations

  
Tides and Currents Weather Stations Pressure Air Temp Water Temp Dewpoint Dewpoint Depression Visibility Wind Speed Wind Dir Waves Ship Positions
date/time (UTC)wind fromknots sea level pressurealtimeterstation pressurevisibilityair tempwater tempwave heightnotes
2019-Dec-06 16:36 216 10 gusting 13 5.0 7.2
2019-Dec-06 16:30 220 8 gusting 13 5.0 7.2
2019-Dec-06 16:24 216 8 gusting 13 5.0 7.2
2019-Dec-06 16:18 214 10 gusting 14 4.4 7.2
2019-Dec-06 16:12 218 7 gusting 10 4.4 7.2
2019-Dec-06 16:06 219 8 gusting 15 4.4 7.2
2019-Dec-06 16:00 222 10 gusting 15 4.4 7.2
2019-Dec-06 15:54 216 11 gusting 16 4.4 7.2
2019-Dec-06 15:48 226 8 gusting 14 3.9 7.2
2019-Dec-06 15:42 213 11 gusting 14 3.9 7.2
2019-Dec-06 15:36 222 8 gusting 13 3.9 7.2
2019-Dec-06 15:30 214 8 gusting 13 3.9 7.2
2019-Dec-06 15:24 211 8 gusting 13 3.3 7.2
2019-Dec-06 15:18 218 8 gusting 11 3.9 7.2
2019-Dec-06 15:12 217 9 gusting 12 3.3 7.2
2019-Dec-06 15:06 216 8 gusting 13 3.3 7.2
2019-Dec-06 15:00 221 9 gusting 13 3.3 7.2
2019-Dec-06 14:54 217 8 gusting 13 3.3 7.2
2019-Dec-06 14:48 221 9 gusting 14 3.3 7.2
2019-Dec-06 14:42 216 6 gusting 13 3.3 7.2
2019-Dec-06 14:36 226 8 gusting 13 3.3 7.2
2019-Dec-06 14:30 217 9 gusting 13 3.3 7.2
2019-Dec-06 14:24 225 6 gusting 8 2.8 7.2
2019-Dec-06 14:18 227 5 gusting 11 2.8 7.2
2019-Dec-06 14:12 239 6 gusting 7 2.8 7.2
2019-Dec-06 14:06 235 5 gusting 9 2.8 7.2
2019-Dec-06 14:00 236 5 gusting 8 2.2 7.2
2019-Dec-06 13:54 248 4 gusting 11 2.2 7.2
2019-Dec-06 13:48 261 5 gusting 10 2.2 7.2
2019-Dec-06 13:42 240 5 gusting 8 2.2 7.2
2019-Dec-06 13:36 240 3 gusting 9 1.7 7.2
2019-Dec-06 13:30 238 4 gusting 7 1.7 7.2
2019-Dec-06 13:24 239 4 gusting 8 1.7 7.2
2019-Dec-06 13:18 232 6 gusting 10 1.7 7.2
2019-Dec-06 13:12 242 6 gusting 10 1.7 7.2
2019-Dec-06 13:06 233 6 gusting 9 1.7 7.2
2019-Dec-06 13:00 235 5 gusting 7 1.7 7.2
2019-Dec-06 12:54 228 4 gusting 6 1.7 7.2
2019-Dec-06 12:48 240 5 gusting 9 1.7 7.2
2019-Dec-06 12:42 250 6 gusting 8 1.7 7.2
2019-Dec-06 12:36 241 6 gusting 10 1.1 7.2
2019-Dec-06 12:30 236 5 gusting 7 1.1 7.2
2019-Dec-06 12:24 236 4 gusting 7 1.1 7.2
2019-Dec-06 12:18 234 6 gusting 8 1.1 7.2
2019-Dec-06 12:12 246 6 gusting 10 1.1 7.2
2019-Dec-06 12:06 236 6 gusting 9 1.1 7.2
2019-Dec-06 12:00 237 6 gusting 9 1.1 7.2
2019-Dec-06 11:54 240 6 gusting 8 1.1 7.2
2019-Dec-06 11:48 239 6 gusting 8 1.1 7.2
2019-Dec-06 11:42 237 5 gusting 9 1.1 7.2
2019-Dec-06 11:36 238 4 gusting 7 1.1 7.2
2019-Dec-06 11:30 234 5 gusting 7 0.6 7.2
2019-Dec-06 11:24 237 3 gusting 5 0.6 7.2
2019-Dec-06 11:18 236 4 gusting 6 0.6 7.2
2019-Dec-06 11:12 238 3 gusting 6 0.6 7.2
2019-Dec-06 11:06 234 4 gusting 6 0.6 7.2
2019-Dec-06 11:00 228 4 gusting 7 0.6 7.2
2019-Dec-06 10:54 233 3 gusting 5 0.6 7.2
2019-Dec-06 10:48 222 3 gusting 5 0.6 7.2
2019-Dec-06 10:42 230 3 gusting 5 0.6 7.2
2019-Dec-06 10:36 254 3 gusting 5 0.6 7.2
2019-Dec-06 10:30 256 3 gusting 6 0.6 7.2
2019-Dec-06 10:24 274 3 gusting 5 0.6 7.2
2019-Dec-06 10:18 234 4 gusting 6 0.6 7.2
2019-Dec-06 10:12 284 2 gusting 3 0.6 7.2
2019-Dec-06 10:06 283 1 gusting 6 0.6 7.2
2019-Dec-06 10:00 301 2 gusting 5 0.6 7.2
2019-Dec-06 09:54 299 2 gusting 5 0.6 7.2
2019-Dec-06 09:48 290 1 gusting 5 0.6 6.7
2019-Dec-06 09:42 290 3 gusting 5 0.6 7.2
2019-Dec-06 09:36 278 3 gusting 4 0.6 7.2
2019-Dec-06 09:30 295 2 gusting 4 0.6 6.7
2019-Dec-06 09:24 258 3 gusting 5 0.6 7.2
2019-Dec-06 09:18 285 3 gusting 8 1.1 7.2
2019-Dec-06 09:12 252 4 gusting 6 1.1 7.2
2019-Dec-06 09:06 282 3 gusting 6 1.1 7.2
2019-Dec-06 09:00 300 3 gusting 7 1.1 6.7
2019-Dec-06 08:54 296 3 gusting 8 1.1 7.2
2019-Dec-06 08:48 322 4 gusting 6 1.1 6.7
2019-Dec-06 08:42 299 2 gusting 4 1.1 7.2
2019-Dec-06 08:36 265 4 gusting 9 1.1 7.2
2019-Dec-06 08:30 311 6 gusting 8 1.1 6.7
2019-Dec-06 08:24 306 4 gusting 8 1.1 7.2
2019-Dec-06 08:18 297 8 gusting 13 1.1 7.2
2019-Dec-06 08:12 294 5 gusting 13 1.1 6.7
2019-Dec-06 08:06 276 5 gusting 13 1.1 6.7
2019-Dec-06 08:00 297 2 gusting 7 0.6 7.2
2019-Dec-06 07:54 262 4 gusting 9 1.1 7.2
2019-Dec-06 07:48 263 3 gusting 5 1.1 7.2
2019-Dec-06 07:42 307 6 gusting 8 1.1 7.2
2019-Dec-06 07:36 297 5 gusting 11 1.1 7.2
2019-Dec-06 07:30 294 3 gusting 9 0.6 7.2
2019-Dec-06 07:24 264 1 gusting 6 0.6 7.2
2019-Dec-06 07:18 241 2 gusting 5 0.6 7.2
2019-Dec-06 07:12 281 2 gusting 4 0.6 7.2
2019-Dec-06 07:06 281 1 gusting 4 0.6 7.2
2019-Dec-06 07:00 263 2 gusting 4 0.6 7.2
2019-Dec-06 06:54 213 0 gusting 3 0.6 7.2
2019-Dec-06 06:48 244 2 gusting 5 1.1 7.2
2019-Dec-06 06:42 257 4 gusting 9 1.1 7.2
2019-Dec-06 06:36 260 5 gusting 9 1.1 7.2
2019-Dec-06 06:30 277 1 gusting 7 1.1 7.2
2019-Dec-06 06:24 312 2 gusting 6 1.1 7.2
2019-Dec-06 06:18 280 1 gusting 6 1.1 7.2
2019-Dec-06 06:12 295 1 gusting 8 1.1 7.2
2019-Dec-06 06:06 257 5 gusting 9 1.7 7.2
2019-Dec-06 06:00 261 3 gusting 6 1.1 7.2
2019-Dec-06 05:54 249 4 gusting 6 1.7 7.2
2019-Dec-06 05:48 237 2 gusting 7 1.7 7.2
2019-Dec-06 05:42 258 3 gusting 6 1.7 7.2
2019-Dec-06 05:36 279 3 gusting 6 1.7 7.2
2019-Dec-06 05:30 298 2 gusting 6 1.7 7.2
2019-Dec-06 05:24 306 3 gusting 6 1.7 7.2
2019-Dec-06 05:18 283 3 gusting 6 1.7 7.2
2019-Dec-06 05:12 302 3 gusting 5 1.7 7.2
2019-Dec-06 05:06 292 1 gusting 5 1.7 7.2
2019-Dec-06 05:00 298 5 gusting 8 1.7 7.2
2019-Dec-06 04:54 287 5 gusting 10 2.2 7.2
2019-Dec-06 04:48 293 3 gusting 7 2.2 7.2
2019-Dec-06 04:42 289 4 gusting 7 2.2 7.2
2019-Dec-06 04:36 278 4 gusting 6 2.2 7.2
2019-Dec-06 04:30 302 3 gusting 7 2.2 7.2
2019-Dec-06 04:24 309 4 gusting 10 2.2 7.2
2019-Dec-06 04:18 302 4 gusting 7 2.2 7.2
2019-Dec-06 04:12 307 3 gusting 6 2.2 7.2
2019-Dec-06 04:06 289 3 gusting 6 2.2 7.2
2019-Dec-06 04:00 294 3 gusting 6 2.2 7.2
2019-Dec-06 03:54 275 3 gusting 7 2.2 7.2
2019-Dec-06 03:48 293 3 gusting 6 2.2 7.2
2019-Dec-06 03:42 279 3 gusting 6 2.2 7.2
2019-Dec-06 03:36 278 3 gusting 9 2.2 7.2
2019-Dec-06 03:30 292 4 gusting 8 2.2 7.2
2019-Dec-06 03:24 296 4 gusting 11 2.2 7.2
2019-Dec-06 03:18 320 4 gusting 9 2.2 7.2
2019-Dec-06 03:12 284 5 gusting 10 2.2 7.2
2019-Dec-06 03:06 287 4 gusting 10 2.2 7.2
2019-Dec-06 03:00 275 3 gusting 7 2.2 7.2
2019-Dec-06 02:54 296 3 gusting 10 2.2 7.2
2019-Dec-06 02:48 297 3 gusting 7 2.2 7.2
2019-Dec-06 02:42 304 4 gusting 10 2.2 7.2
2019-Dec-06 02:36 289 5 gusting 12 2.2 7.2
2019-Dec-06 02:30 307 5 gusting 10 2.2 7.2
2019-Dec-06 02:24 292 6 gusting 13 2.2 7.2
2019-Dec-06 02:18 282 6 gusting 11 2.2 7.2
2019-Dec-06 02:12 295 5 gusting 10 2.2 7.2
2019-Dec-06 02:06 299 6 gusting 13 2.2 7.2
2019-Dec-06 02:00 288 6 gusting 11 2.2 7.2
2019-Dec-06 01:54 293 6 gusting 13 2.2 7.2
2019-Dec-06 01:48 295 6 gusting 9 2.2 7.2
2019-Dec-06 01:30 286 4 gusting 10 2.2 7.2
2019-Dec-06 01:24 291 5 gusting 12 2.2 7.2
2019-Dec-06 01:18 292 5 gusting 9 2.2 7.2
2019-Dec-06 01:12 313 3 gusting 11 2.2 7.2
2019-Dec-06 01:06 280 4 gusting 13 2.2 7.2
2019-Dec-06 01:00 291 4 gusting 10 2.2 7.2
2019-Dec-06 00:54 279 4 gusting 11 2.2 7.2
2019-Dec-06 00:48 272 4 gusting 9 2.2 7.2
2019-Dec-06 00:42 267 3 gusting 9 2.2 7.2
2019-Dec-06 00:36 263 5 gusting 13 2.2 7.2
2019-Dec-06 00:30 288 7 gusting 14 2.2 7.2
2019-Dec-06 00:24 282 4 gusting 13 2.2 7.2
2019-Dec-06 00:18 297 5 gusting 11 2.8 7.2
2019-Dec-06 00:12 270 3 gusting 8 2.8 7.2
2019-Dec-06 00:06 293 6 gusting 10 2.8 7.2
2019-Dec-06 00:00 265 4 gusting 12 2.8 7.2
2019-Dec-05 23:54 280 6 gusting 11 2.8 7.2
2019-Dec-05 23:42 248 6 gusting 10 2.8 7.2
2019-Dec-05 23:30 273 3 gusting 7 2.8 7.2
2019-Dec-05 23:24 262 5 gusting 8 2.8 7.2
2019-Dec-05 23:18 270 3 gusting 6 2.8 7.2
2019-Dec-05 23:12 276 5 gusting 7 2.8 7.2
2019-Dec-05 23:06 291 4 gusting 7 2.8 7.2
2019-Dec-05 23:00 258 6 gusting 9 2.8 7.2
2019-Dec-05 22:54 297 2 gusting 8 3.3 7.2
2019-Dec-05 22:48 301 6 gusting 12 2.8 7.2
2019-Dec-05 22:42 297 6 gusting 12 3.3 7.2
2019-Dec-05 22:36 302 5 gusting 11 3.3 7.2
2019-Dec-05 22:30 314 6 gusting 13 3.3 7.2
2019-Dec-05 22:24 286 6 gusting 11 3.3 7.2
2019-Dec-05 22:18 284 3 gusting 10 3.3 7.2
2019-Dec-05 22:12 279 5 gusting 12 3.3 7.2
2019-Dec-05 22:06 294 6 gusting 12 3.3 7.2
2019-Dec-05 22:00 297 4 gusting 8 3.9 7.2
2019-Dec-05 21:54 304 4 gusting 12 3.9 7.2
2019-Dec-05 21:48 294 5 gusting 13 3.9 7.2
2019-Dec-05 21:42 304 7 gusting 13 3.9 7.2
2019-Dec-05 21:36 313 6 gusting 11 3.9 7.2
2019-Dec-05 21:30 305 5 gusting 11 3.9 7.2
2019-Dec-05 21:24 295 6 gusting 15 3.9 7.2
2019-Dec-05 21:18 314 5 gusting 14 3.9 7.2
2019-Dec-05 21:12 290 6 gusting 13 3.9 7.2
2019-Dec-05 21:06 286 9 gusting 14 4.4 7.2
2019-Dec-05 21:00 290 6 gusting 11 4.4 7.2
2019-Dec-05 20:54 315 6 gusting 12 4.4 7.2
2019-Dec-05 20:48 283 8 gusting 13 4.4 7.2
2019-Dec-05 20:42 309 6 gusting 13 4.4 7.2
2019-Dec-05 20:36 303 7 gusting 12 4.4 7.2
2019-Dec-05 20:30 279 7 gusting 14 4.4 7.2
2019-Dec-05 20:24 316 6 gusting 10 4.4 7.2
2019-Dec-05 20:18 311 8 gusting 15 4.4 7.2
2019-Dec-05 20:12 293 9 gusting 18 4.4 7.2
2019-Dec-05 20:06 297 9 gusting 16 4.4 7.2
2019-Dec-05 20:00 303 8 gusting 18 4.4 7.2
2019-Dec-05 19:54 297 7 gusting 13 4.4 7.2
2019-Dec-05 19:48 289 9 gusting 15 4.4 7.2
2019-Dec-05 19:42 303 9 gusting 14 4.4 7.2
2019-Dec-05 19:36 325 6 gusting 11 5.0 7.2
2019-Dec-05 19:30 313 8 gusting 15 5.0 7.2
2019-Dec-05 19:24 325 11 gusting 19 5.0 7.2
2019-Dec-05 19:18 332 13 gusting 18 5.0 7.2
2019-Dec-05 19:12 311 6 gusting 10 5.0 7.2
2019-Dec-05 19:06 313 7 gusting 12 5.6 7.2
2019-Dec-05 19:00 317 6 gusting 12 5.0 7.2
2019-Dec-05 18:54 304 8 gusting 18 4.4 7.2
2019-Dec-05 18:48 337 11 gusting 16 4.4 7.2
2019-Dec-05 18:42 327 12 gusting 18 4.4 7.2
2019-Dec-05 18:36 324 9 gusting 19 4.4 7.2
2019-Dec-05 18:30 323 10 gusting 19 5.0 7.2
2019-Dec-05 18:24 317 11 gusting 18 5.0 7.2
2019-Dec-05 18:18 303 7 gusting 16 5.0 7.2
2019-Dec-05 18:12 298 7 gusting 16 5.0 7.2
2019-Dec-05 18:06 321 10 gusting 18 5.0 7.2
2019-Dec-05 18:00 310 7 gusting 14 5.6 7.2
2019-Dec-05 17:54 299 7 gusting 14 5.0 7.2
2019-Dec-05 17:48 299 9 gusting 17 4.4 7.2
2019-Dec-05 17:42 303 9 gusting 17 4.4 7.2
2019-Dec-05 17:36 290 7 gusting 15 5.0 7.2
2019-Dec-05 17:30 304 6 gusting 11 5.0 7.2
2019-Dec-05 17:24 306 8 gusting 14 5.0 7.2
2019-Dec-05 17:18 303 7 gusting 18 5.0 7.2
2019-Dec-05 17:12 297 10 gusting 19 4.4 7.2
2019-Dec-05 17:06 298 8 gusting 17 5.0 7.2
2019-Dec-05 17:00 298 11 gusting 18 4.4 7.2
2019-Dec-05 16:54 309 8 gusting 19 5.0 7.2
2019-Dec-05 16:48 307 9 gusting 15 5.0 7.2
2019-Dec-05 16:42 292 7 gusting 19 5.6 7.2
2019-Dec-05 16:36 312 10 gusting 19 5.6 7.2
2019-Dec-05 16:30 319 9 gusting 13 6.1 7.2
2019-Dec-05 16:24 324 7 gusting 13 6.1 7.2
2019-Dec-05 16:18 302 9 gusting 15 5.6 7.2
2019-Dec-05 16:12 285 6 gusting 11 5.6 7.2
2019-Dec-05 16:06 313 7 gusting 17 5.6 7.2
2019-Dec-05 16:00 304 11 gusting 19 5.6 7.2
2019-Dec-05 15:54 299 11 gusting 19 5.0 7.2
2019-Dec-05 15:48 314 6 gusting 13 5.6 7.2
2019-Dec-05 15:42 273 6 gusting 16 6.1 7.2
2019-Dec-05 15:36 319 7 gusting 11 5.6 7.2
2019-Dec-05 15:30 288 6 gusting 16 5.6 7.2
2019-Dec-05 15:24 288 6 gusting 14 5.6 7.2
2019-Dec-05 15:18 303 6 gusting 16 6.1 7.2
2019-Dec-05 15:12 300 6 gusting 13 5.6 7.2
2019-Dec-05 15:06 314 5 gusting 11 5.6 7.2
2019-Dec-05 15:00 293 6 gusting 16 5.0 7.2
2019-Dec-05 14:54 302 10 gusting 15 5.0 7.2
2019-Dec-05 14:48 282 6 gusting 12 5.0 7.2
2019-Dec-05 14:42 287 6 gusting 9 5.0 7.2
2019-Dec-05 14:36 324 5 gusting 10 5.0 7.2
2019-Dec-05 14:30 275 4 gusting 11 5.0 7.2
2019-Dec-05 14:24 310 5 gusting 10 4.4 7.2
2019-Dec-05 14:18 289 5 gusting 9 4.4 6.7
2019-Dec-05 14:12 286 6 gusting 9 4.4 6.7
2019-Dec-05 14:06 303 5 gusting 9 4.4 6.7
2019-Dec-05 14:00 289 6 gusting 11 3.9 6.7
2019-Dec-05 13:54 293 6 gusting 10 3.9 7.2
2019-Dec-05 13:48 301 5 gusting 11 3.9 7.2
2019-Dec-05 13:42 268 3 gusting 8 3.3 7.2
2019-Dec-05 13:36 279 6 gusting 9 3.3 7.2
2019-Dec-05 13:30 297 4 gusting 9 2.8 7.2
2019-Dec-05 13:24 295 4 gusting 10 2.8 7.2
2019-Dec-05 13:18 313 6 gusting 10 2.2 7.2
2019-Dec-05 13:12 311 4 gusting 7 2.2 7.2
2019-Dec-05 13:06 307 5 gusting 8 2.2 7.2
2019-Dec-05 13:00 291 3 gusting 7 2.2 7.2
2019-Dec-05 12:54 300 4 gusting 10 2.2 7.2
2019-Dec-05 12:48 298 5 gusting 7 2.2 7.2
2019-Dec-05 12:42 300 4 gusting 7 2.2 7.2
2019-Dec-05 12:36 297 5 gusting 10 2.2 7.2
2019-Dec-05 12:30 299 3 gusting 6 2.2 7.2
2019-Dec-05 12:24 298 3 gusting 7 2.2 7.2
2019-Dec-05 12:18 281 3 gusting 6 2.2 7.2
2019-Dec-05 12:12 282 3 gusting 5 1.7 7.2
2019-Dec-05 12:06 281 1 gusting 6 1.7 7.2
2019-Dec-05 12:00 289 3 gusting 5 1.7 7.2
2019-Dec-05 11:54 294 2 gusting 7 2.2 7.2
2019-Dec-05 11:48 311 3 gusting 5 2.2 7.2
2019-Dec-05 11:42 289 4 gusting 8 2.2 7.2
2019-Dec-05 11:36 296 4 gusting 6 2.2 7.2
2019-Dec-05 11:30 297 4 gusting 6 2.2 7.2
2019-Dec-05 11:24 293 4 gusting 6 1.7 7.2
2019-Dec-05 11:18 302 2 gusting 4 1.7 7.2
2019-Dec-05 11:12 300 2 gusting 6 1.7 7.2
2019-Dec-05 11:06 319 2 gusting 3 1.7 7.2
2019-Dec-05 11:00 326 2 gusting 5 1.7 7.2
2019-Dec-05 10:54 329 2 gusting 4 1.7 7.2
2019-Dec-05 10:48 307 2 gusting 4 1.7 7.2
2019-Dec-05 10:42 304 1 gusting 5 1.7 7.2
2019-Dec-05 10:36 329 2 gusting 5 1.7 7.2
2019-Dec-05 10:30 344 1 gusting 3 1.1 7.2
2019-Dec-05 10:24 353 2 gusting 6 1.1 7.2
2019-Dec-05 10:18 306 3 gusting 6 1.1 6.7
2019-Dec-05 10:12 315 1 gusting 6 1.1 6.7
2019-Dec-05 10:06 295 4 gusting 9 1.1 6.7
2019-Dec-05 10:00 290 4 gusting 6 1.1 6.7
2019-Dec-05 09:54 255 2 gusting 6 1.1 6.7
2019-Dec-05 09:48 256 3 gusting 6 1.1 6.7
2019-Dec-05 09:42 258 3 gusting 4 1.1 6.7
2019-Dec-05 09:36 256 2 gusting 4 1.1 6.7
2019-Dec-05 09:30 243 2 gusting 5 1.1 6.7
2019-Dec-05 09:24 238 3 gusting 5 1.1 6.7
2019-Dec-05 09:18 242 2 gusting 5 1.1 6.7
2019-Dec-05 09:12 229 2 gusting 5 1.1 6.7
2019-Dec-05 09:06 250 3 gusting 4 1.1 6.7
2019-Dec-05 09:00 230 1 gusting 5 1.1 6.7
2019-Dec-05 08:54 252 2 gusting 4 1.1 6.7
2019-Dec-05 08:48 257 1 gusting 3 1.1 6.7
2019-Dec-05 08:42 252 0 gusting 4 1.1 6.7
2019-Dec-05 08:36 256 1 gusting 4 1.1 6.7
2019-Dec-05 08:30 239 1 gusting 5 1.1 7.2
2019-Dec-05 08:24 237 2 gusting 5 1.1 6.7
2019-Dec-05 08:18 232 3 gusting 5 1.1 6.7
2019-Dec-05 08:12 239 2 gusting 4 1.1 6.7
2019-Dec-05 08:06 240 3 gusting 5 1.1 6.7
2019-Dec-05 08:00 245 2 gusting 3 1.7 6.7
2019-Dec-05 07:54 245 3 gusting 6 1.7 6.7
2019-Dec-05 07:48 249 2 gusting 6 1.7 6.7
2019-Dec-05 07:42 257 4 gusting 6 1.7 6.7
2019-Dec-05 07:36 254 4 gusting 6 1.7 6.7
2019-Dec-05 07:30 260 4 gusting 6 1.7 6.7
2019-Dec-05 07:24 255 3 gusting 6 1.7 6.7
2019-Dec-05 07:18 255 2 gusting 6 1.7 6.7
2019-Dec-05 07:12 249 4 gusting 7 1.7 6.7
2019-Dec-05 07:06 251 3 gusting 5 1.7 6.7
2019-Dec-05 07:00 254 3 gusting 4 1.7 6.7
2019-Dec-05 06:54 269 2 gusting 4 1.7 6.7
2019-Dec-05 06:48 260 2 gusting 4 1.7 7.2
2019-Dec-05 06:42 297 2 gusting 6 1.7 6.7
2019-Dec-05 06:36 284 1 gusting 5 1.7 7.2
2019-Dec-05 06:30 255 3 gusting 5 1.7 6.7
2019-Dec-05 06:24 258 3 gusting 5 1.7 7.2
2019-Dec-05 06:18 287 2 gusting 6 1.7 6.7
2019-Dec-05 06:12 255 3 gusting 6 1.7 6.7
2019-Dec-05 06:06 250 2 gusting 5 1.7 6.7
2019-Dec-05 06:00 248 1 gusting 5 1.7 6.7
2019-Dec-05 05:54 260 3 gusting 6 1.7 6.7
2019-Dec-05 05:48 264 2 gusting 5 1.7 6.7
2019-Dec-05 05:42 252 2 gusting 4 1.7 6.7
2019-Dec-05 05:36 251 3 gusting 6 1.7 6.7
2019-Dec-05 05:30 261 2 gusting 4 1.7 6.7
2019-Dec-05 05:24 244 3 gusting 5 1.7 7.2
2019-Dec-05 05:18 255 3 gusting 5 1.7 7.2
2019-Dec-05 05:12 258 3 gusting 5 1.7 7.2
2019-Dec-05 05:06 258 1 gusting 4 1.7 7.2
2019-Dec-05 05:00 261 3 gusting 5 1.7 7.2
2019-Dec-05 04:54 257 1 gusting 4 1.7 7.2
2019-Dec-05 04:48 232 1 gusting 3 1.7 6.7
2019-Dec-05 04:42 256 1 gusting 4 1.7 7.2
2019-Dec-05 04:36 259 1 gusting 4 1.1 7.2
2019-Dec-05 04:30 251 2 gusting 4 1.7 7.2
2019-Dec-05 04:24 243 2 gusting 4 1.7 7.2
2019-Dec-05 04:18 251 1 gusting 5 1.7 7.2
2019-Dec-05 04:12 270 1 gusting 6 1.7 7.2
2019-Dec-05 04:06 251 1 gusting 5 1.7 7.2
2019-Dec-05 04:00 251 4 gusting 6 1.7 7.2
2019-Dec-05 03:54 262 3 gusting 5 1.7 7.2
2019-Dec-05 03:48 250 3 gusting 5 1.7 7.2
2019-Dec-05 03:42 246 2 gusting 4 1.7 7.2
2019-Dec-05 03:36 255 3 gusting 6 1.7 7.2
2019-Dec-05 03:30 244 2 gusting 3 1.7 7.2
2019-Dec-05 03:24 246 1 gusting 5 1.7 7.2
2019-Dec-05 03:18 258 3 gusting 6 2.2 7.2
2019-Dec-05 03:12 269 2 gusting 5 2.2 7.2
2019-Dec-05 03:06 250 3 gusting 5 2.2 7.2
2019-Dec-05 03:00 246 2 gusting 6 2.2 6.7
2019-Dec-05 02:54 250 4 gusting 8 2.2 6.7
2019-Dec-05 02:48 265 2 gusting 5 2.2 6.7
2019-Dec-05 02:42 269 2 gusting 5 2.2 6.7
2019-Dec-05 02:36 263 4 gusting 7 2.2 6.7
2019-Dec-05 02:30 252 3 gusting 7 2.2 7.2
2019-Dec-05 02:24 259 5 gusting 7 2.2 7.2
2019-Dec-05 02:18 244 2 gusting 4 2.2 7.2
2019-Dec-05 02:12 232 4 gusting 6 2.2 7.2
2019-Dec-05 02:06 250 2 gusting 6 2.2 7.2
2019-Dec-05 02:00 251 3 gusting 6 2.2 7.2
2019-Dec-05 01:54 257 4 gusting 6 2.2 6.7
2019-Dec-05 01:48 251 4 gusting 6 2.2 6.7
2019-Dec-05 01:30 251 1 gusting 5 2.2 7.2
2019-Dec-05 01:24 296 3 gusting 5 2.2 7.2
2019-Dec-05 01:18 302 2 gusting 5 2.2 7.2
2019-Dec-05 01:12 289 3 gusting 6 2.2 7.2
2019-Dec-05 01:06 302 2 gusting 6 2.2 6.7
2019-Dec-05 01:00 286 1 gusting 4 2.2 7.2
2019-Dec-05 00:54 291 2 gusting 6 2.2 7.2
2019-Dec-05 00:48 300 3 gusting 6 2.2 7.2
2019-Dec-05 00:42 312 2 gusting 5 2.2 7.2
2019-Dec-05 00:36 298 3 gusting 5 2.2 7.2
2019-Dec-05 00:30 309 4 gusting 6 2.2 7.2
2019-Dec-05 00:24 304 2 gusting 4 2.2 7.2
2019-Dec-05 00:18 305 3 gusting 4 2.2 7.2
2019-Dec-05 00:12 322 2 gusting 4 2.2 7.2
2019-Dec-05 00:06 333 2 gusting 4 2.2 7.2
2019-Dec-05 00:00 329 3 gusting 6 2.2 7.2
2019-Dec-04 23:54 337 3 gusting 5 2.2 7.2
2019-Dec-04 23:36 318 3 gusting 5 2.8 7.2
2019-Dec-04 23:30 317 2 gusting 4 2.8 7.2
2019-Dec-04 23:24 262 3 gusting 5 2.8 7.2
2019-Dec-04 23:18 248 3 gusting 6 2.8 6.7
2019-Dec-04 23:12 256 5 gusting 6 2.8 6.7
2019-Dec-04 23:06 255 3 gusting 6 2.8 7.2
2019-Dec-04 23:00 258 3 gusting 5 2.8 7.2
2019-Dec-04 22:54 270 2 gusting 6 2.8 7.2
2019-Dec-04 22:48 284 1 gusting 5 2.8 7.2
2019-Dec-04 22:42 270 3 gusting 6 2.8 7.2
2019-Dec-04 22:36 264 5 gusting 7 2.8 7.2
2019-Dec-04 22:30 257 3 gusting 7 2.8 7.2
2019-Dec-04 22:24 262 6 gusting 7 2.8 7.2
2019-Dec-04 22:18 255 4 gusting 6 2.8 6.7
2019-Dec-04 22:12 249 5 gusting 10 2.8 6.7
2019-Dec-04 22:06 258 4 gusting 8 2.8 6.7
2019-Dec-04 22:00 258 7 gusting 10 2.8 6.7
2019-Dec-04 21:54 244 6 gusting 8 2.8 6.7
2019-Dec-04 21:48 250 5 gusting 8 3.3 6.7
2019-Dec-04 21:42 260 4 gusting 7 3.3 6.7
2019-Dec-04 21:36 266 3 gusting 6 3.3 6.7
2019-Dec-04 21:30 261 4 gusting 8 3.3 6.7
2019-Dec-04 21:24 289 1 gusting 6 3.3 6.7
2019-Dec-04 21:18 261 5 gusting 7 3.3 6.7
2019-Dec-04 21:12 318 2 gusting 5 3.3 6.7
2019-Dec-04 21:06 278 4 gusting 10 3.3 6.7
2019-Dec-04 21:00 260 6 gusting 9 3.3 6.7
2019-Dec-04 20:54 255 6 gusting 10 3.3 6.7
2019-Dec-04 20:48 251 6 gusting 9 3.3 6.7
2019-Dec-04 20:42 268 1 gusting 8 3.3 6.7
2019-Dec-04 20:36 258 5 gusting 8 3.3 6.7
2019-Dec-04 20:30 291 3 gusting 7 3.3 6.7
2019-Dec-04 20:24 265 5 gusting 7 3.3 6.7
2019-Dec-04 20:18 276 2 gusting 6 3.3 6.7
2019-Dec-04 20:12 279 5 gusting 7 3.3 6.7
2019-Dec-04 20:06 246 6 gusting 9 3.3 6.7
2019-Dec-04 20:00 276 2 gusting 6 3.3 6.7
2019-Dec-04 19:54 269 6 gusting 8 3.3 6.7
2019-Dec-04 19:48 246 5 gusting 8 3.3 6.7
2019-Dec-04 19:42 246 4 gusting 6 3.3 6.7
2019-Dec-04 19:36 279 4 gusting 8 3.3 6.7
2019-Dec-04 19:30 265 4 gusting 8 3.3 6.7
2019-Dec-04 19:24 240 1 gusting 5 3.3 6.7
2019-Dec-04 19:18 303 2 gusting 8 3.3 6.7
2019-Dec-04 19:12 257 6 gusting 8 3.3 6.7
2019-Dec-04 19:06 255 6 gusting 10 3.3 6.7
2019-Dec-04 19:00 251 5 gusting 7 3.3 6.7
2019-Dec-04 18:54 237 5 gusting 11 3.3 6.7
2019-Dec-04 18:48 249 4 gusting 9 3.3 6.7
2019-Dec-04 18:42 238 7 gusting 11 3.3 6.7
2019-Dec-04 18:36 240 6 gusting 8 3.3 6.7
2019-Dec-04 18:30 279 3 gusting 6 3.3 6.7
2019-Dec-04 18:24 274 4 gusting 7 3.3 6.7
2019-Dec-04 18:18 259 5 gusting 9 3.3 6.7
2019-Dec-04 18:12 278 1 gusting 6 3.3 7.2
2019-Dec-04 18:06 261 5 gusting 11 3.3 7.2
2019-Dec-04 18:00 265 3 gusting 6 3.3 7.2
2019-Dec-04 17:54 295 5 gusting 8 3.3 6.7
2019-Dec-04 17:48 268 5 gusting 9 2.8 7.2
2019-Dec-04 17:42 256 4 gusting 8 2.8 7.2
2019-Dec-04 17:36 249 6 gusting 10 2.8 7.2
2019-Dec-04 17:30 257 4 gusting 11 2.8 7.2
2019-Dec-04 17:24 240 3 gusting 7 2.8 7.2
2019-Dec-04 17:18 250 3 gusting 6 2.8 7.2
2019-Dec-04 17:12 286 3 gusting 6 2.8 7.2
2019-Dec-04 17:06 247 5 gusting 8 2.8 7.2
2019-Dec-04 17:00 251 4 gusting 7 2.8 6.7